MIET-AIS (RS28S)

Last updated on Mon Jun 10 2024 00:03:00 GMT+0000 (Coordinated Universal Time)

1 53377U 22096H 24161.28313646 .06087195 25254-5 95647-3 0 9994 2 53377 97.3696 83.6101 0009645 207.5873 152.4912 16.33819893103258

Satellite not in orbit

MIET-AIS (RS28S)